When you browse on this site, cookies collect data to enhance your experience and personalize the content and advertising you see.
Visit our Privacy Policy to learn more. By continuing to use the site, you agree to this use of cookies and data.
  • In Deutschland
  • Länderverzeichnis
  • Für 7 Tage
  • Wassertemperatur
  • Wetterkarte
  • Widgets
  • user-avatar
    Anmelden

    Stündliche Wetter Tschachansur

    Heute, 23 September, Montag

    Zeit Temperatur Niederschläge Wind Luftdruck Luftfeuchtigkeit
    00:00 +27°C° 0 mm 6 m/S 715 mmHg 32%
    01:00 +27°C° 0 mm 8 m/S 715 mmHg 44%
    02:00 +24°C° 0 mm 9 m/S 715 mmHg 45%
    03:00 +23°C° 0 mm 9 m/S 715 mmHg 47%
    04:00 +22°C° 0 mm 9 m/S 716 mmHg 49%
    05:00 +22°C° 0 mm 8 m/S 716 mmHg 48%
    06:00 +22°C° 0 mm 8 m/S 717 mmHg 48%
    07:00 +22°C° 0 mm 8 m/S 717 mmHg 47%
    08:00 +24°C° 0 mm 7 m/S 718 mmHg 41%
    09:00 +28°C° 0 mm 6 m/S 718 mmHg 34%
    10:00 +32°C° 0 mm 5 m/S 718 mmHg 25%
    11:00 +34°C° 0 mm 4 m/S 718 mmHg 21%
    12:00 +36°C° 0 mm 4 m/S 718 mmHg 18%
    13:00 +38°C° 0 mm 3 m/S 717 mmHg 14%
    14:00 +39°C° 0 mm 2 m/S 717 mmHg 12%
    15:00 +40°C° 0 mm 2 m/S 716 mmHg 11%
    16:00 +41°C° 0 mm 2 m/S 716 mmHg 9%
    17:00 +37°C° 0 mm 2 m/S 716 mmHg 12%
    18:00 +34°C° 0 mm 2 m/S 716 mmHg 15%
    19:00 +30°C° 0 mm 2 m/S 715 mmHg 18%
    20:00 +29°C° 0 mm 3 m/S 716 mmHg 21%
    21:00 +28°C° 0 mm 3 m/S 716 mmHg 24%
    22:00 +27°C° 0 mm 3 m/S 716 mmHg 27%
    23:00 +26°C° 0 mm 3 m/S 715 mmHg 30%

    Morgen, 24 September, Dienstag

    Zeit Temperatur Niederschläge Wind Luftdruck Luftfeuchtigkeit
    00:00 +25°C° 0 mm 3 m/S 715 mmHg 32%
    01:00 +24°C° 0 mm 3 m/S 715 mmHg 35%
    02:00 +22°C° 0 mm 3 m/S 715 mmHg 37%
    03:00 +21°C° 0 mm 3 m/S 715 mmHg 39%
    04:00 +20°C° 0 mm 2 m/S 715 mmHg 41%
    05:00 +21°C° 0 mm 2 m/S 715 mmHg 39%
    06:00 +23°C° 0 mm 2 m/S 716 mmHg 37%
    07:00 +24°C° 0 mm 2 m/S 716 mmHg 35%
    08:00 +27°C° 0 mm 2 m/S 717 mmHg 30%
    09:00 +29°C° 0 mm 1 m/S 717 mmHg 25%
    10:00 +32°C° 0 mm 1 m/S 718 mmHg 20%
    11:00 +34°C° 0 mm 1 m/S 717 mmHg 17%
    12:00 +36°C° 0 mm 1 m/S 716 mmHg 14%
    13:00 +40°C° 0 mm 1 m/S 716 mmHg 11%
    14:00 +40°C° 0 mm 1 m/S 716 mmHg 9%
    15:00 +41°C° 0 mm 1 m/S 715 mmHg 8%
    16:00 +41°C° 0 mm 1 m/S 715 mmHg 7%
    17:00 +36°C° 0 mm 1 m/S 715 mmHg 10%
    18:00 +32°C° 0 mm 1 m/S 714 mmHg 12%
    19:00 +29°C° 0 mm 1 m/S 714 mmHg 14%
    20:00 +28°C° 0 mm 1 m/S 714 mmHg 15%
    21:00 +27°C° 0 mm 1 m/S 714 mmHg 15%
    22:00 +27°C° 0 mm 1 m/S 714 mmHg 16%
    23:00 +26°C° 0 mm 1 m/S 714 mmHg 16%

    übermorgen, 25 September, Mittwoch

    Zeit Temperatur Niederschläge Wind Luftdruck Luftfeuchtigkeit
    00:00 +26°C° 0 mm 1 m/S 714 mmHg 16%
    01:00 +26°C° 0 mm 2 m/S 714 mmHg 17%
    02:00 +25°C° 0 mm 2 m/S 714 mmHg 19%
    03:00 +25°C° 0 mm 2 m/S 714 mmHg 21%
    04:00 +24°C° 0 mm 2 m/S 714 mmHg 23%
    05:00 +25°C° 0 mm 2 m/S 715 mmHg 22%
    06:00 +26°C° 0 mm 2 m/S 715 mmHg 21%
    07:00 +26°C° 0 mm 2 m/S 716 mmHg 21%
    08:00 +29°C° 0 mm 2 m/S 717 mmHg 17%
    09:00 +32°C° 0 mm 2 m/S 717 mmHg 14%
    10:00 +35°C° 0 mm 1 m/S 718 mmHg 11%
    11:00 +37°C° 0 mm 1 m/S 717 mmHg 10%
    12:00 +40°C° 0 mm 1 m/S 717 mmHg 8%
    13:00 +42°C° 0 mm 1 m/S 717 mmHg 7%
    14:00 +42°C° 0 mm 1 m/S 716 mmHg 7%
    15:00 +42°C° 0 mm 1 m/S 716 mmHg 7%
    16:00 +43°C° 0 mm 1 m/S 716 mmHg 7%
    17:00 +39°C° 0 mm 1 m/S 715 mmHg 9%
    18:00 +34°C° 0 mm 1 m/S 715 mmHg 12%
    19:00 +31°C° 0 mm 1 m/S 715 mmHg 14%
    20:00 +30°C° 0 mm 1 m/S 715 mmHg 15%
    21:00 +30°C° 0 mm 1 m/S 715 mmHg 15%
    22:00 +29°C° 0 mm 1 m/S 715 mmHg 15%
    23:00 +29°C° 0 mm 1 m/S 715 mmHg 16%

    26 September, Donnerstag

    Zeit Temperatur Niederschläge Wind Luftdruck Luftfeuchtigkeit
    00:00 +28°C° 0 mm 2 m/S 715 mmHg 16%
    01:00 +28°C° 0 mm 2 m/S 715 mmHg 16%
    02:00 +27°C° 0 mm 2 m/S 715 mmHg 17%
    03:00 +26°C° 0 mm 1 m/S 715 mmHg 18%
    04:00 +25°C° 0 mm 1 m/S 715 mmHg 18%
    05:00 +27°C° 0 mm 1 m/S 716 mmHg 16%
    06:00 +29°C° 0 mm 1 m/S 716 mmHg 15%
    07:00 +30°C° 0 mm 1 m/S 717 mmHg 13%
    08:00 +33°C° 0 mm 1 m/S 718 mmHg 11%
    09:00 +37°C° 0 mm 2 m/S 718 mmHg 10%
    10:00 +40°C° 0 mm 2 m/S 718 mmHg 8%
    11:00 +41°C° 0 mm 2 m/S 718 mmHg 8%
    12:00 +42°C° 0 mm 2 m/S 718 mmHg 7%
    13:00 +45°C° 0 mm 2 m/S 717 mmHg 7%
    14:00 +45°C° 0 mm 2 m/S 717 mmHg 7%
    15:00 +45°C° 0 mm 2 m/S 716 mmHg 7%
    16:00 +44°C° 0 mm 1 m/S 716 mmHg 7%
    17:00 +41°C° 0 mm 2 m/S 716 mmHg 9%
    18:00 +37°C° 0 mm 2 m/S 715 mmHg 11%
    19:00 +34°C° 0 mm 2 m/S 715 mmHg 13%
    20:00 +32°C° 0 mm 2 m/S 715 mmHg 14%
    21:00 +31°C° 0 mm 1 m/S 715 mmHg 15%
    22:00 +30°C° 0 mm 1 m/S 715 mmHg 15%
    23:00 +30°C° 0 mm 1 m/S 715 mmHg 16%

    27 September, Freitag

    Zeit Temperatur Niederschläge Wind Luftdruck Luftfeuchtigkeit
    00:00 +30°C° 0 mm 2 m/S 715 mmHg 16%
    01:00 +30°C° 0 mm 2 m/S 715 mmHg 16%
    02:00 +29°C° 0 mm 2 m/S 715 mmHg 17%
    03:00 +28°C° 0 mm 2 m/S 715 mmHg 18%
    04:00 +27°C° 0 mm 2 m/S 715 mmHg 19%
    05:00 +28°C° 0 mm 2 m/S 715 mmHg 18%
    06:00 +28°C° 0 mm 3 m/S 716 mmHg 17%
    07:00 +29°C° 0 mm 4 m/S 716 mmHg 16%
    08:00 +33°C° 0 mm 4 m/S 717 mmHg 13%
    09:00 +37°C° 0 mm 4 m/S 717 mmHg 10%
    10:00 +41°C° 0 mm 4 m/S 717 mmHg 8%
    11:00 +43°C° 0 mm 4 m/S 717 mmHg 7%
    12:00 +44°C° 0 mm 4 m/S 716 mmHg 5%
    13:00 +47°C° 0 mm 4 m/S 716 mmHg 4%
    14:00 +47°C° 0 mm 4 m/S 715 mmHg 4%
    15:00 +48°C° 0 mm 4 m/S 715 mmHg 4%
    16:00 +48°C° 0 mm 4 m/S 715 mmHg 4%
    17:00 +43°C° 0 mm 3 m/S 714 mmHg 5%
    18:00 +38°C° 0 mm 2 m/S 714 mmHg 7%
    19:00 +34°C° 0 mm 2 m/S 713 mmHg 8%
    20:00 +32°C° 0 mm 2 m/S 713 mmHg 9%
    21:00 +32°C° 0 mm 2 m/S 714 mmHg 9%
    22:00 +31°C° 0 mm 2 m/S 714 mmHg 10%
    23:00 +31°C° 0 mm 3 m/S 714 mmHg 11%

    28 September, Samstag

    Zeit Temperatur Niederschläge Wind Luftdruck Luftfeuchtigkeit
    00:00 +30°C° 0 mm 3 m/S 714 mmHg 12%
    01:00 +30°C° 0 mm 4 m/S 713 mmHg 13%
    02:00 +29°C° 0 mm 4 m/S 713 mmHg 13%
    03:00 +29°C° 0 mm 4 m/S 713 mmHg 13%
    04:00 +28°C° 0 mm 4 m/S 713 mmHg 13%
    05:00 +29°C° 0 mm 3 m/S 713 mmHg 13%
    06:00 +29°C° 0 mm 3 m/S 714 mmHg 12%
    07:00 +30°C° 0 mm 2 m/S 714 mmHg 12%
    08:00 +34°C° 0 mm 3 m/S 714 mmHg 10%
    09:00 +38°C° 0 mm 3 m/S 715 mmHg 8%
    10:00 +42°C° 0 mm 4 m/S 715 mmHg 6%
    11:00 +44°C° 0 mm 4 m/S 714 mmHg 5%
    12:00 +45°C° 0 mm 4 m/S 714 mmHg 5%
    13:00 +48°C° 0 mm 4 m/S 713 mmHg 4%
    14:00 +48°C° 0 mm 5 m/S 713 mmHg 4%
    15:00 +47°C° 0 mm 5 m/S 712 mmHg 4%
    16:00 +47°C° 0 mm 6 m/S 712 mmHg 3%
    17:00 +43°C° 0 mm 5 m/S 712 mmHg 4%
    18:00 +40°C° 0 mm 4 m/S 712 mmHg 5%
    19:00 +36°C° 0 mm 3 m/S 712 mmHg 6%
    20:00 +35°C° 0 mm 3 m/S 712 mmHg 7%
    21:00 +34°C° 0 mm 3 m/S 712 mmHg 7%
    22:00 +33°C° 0 mm 4 m/S 712 mmHg 8%
    23:00 +32°C° 0 mm 4 m/S 712 mmHg 9%
    Mehr zeigen